Time,TemperatureF,DewpointF,PressureIn,WindDirection,WindDirectionDegrees,WindSpeedMPH,WindSpeedGustMPH,Humidity,HourlyPrecipIn,Conditions,Clouds,dailyrainin,SolarRadiationWatts/m^2,SoftwareType,DateUTC
2013-10-26 00:22:00,46.0,25.0,-100.00,ENE,65,0.0,0.0,43,-99.99,,,-99.99,0.000000,,2013-10-26 06:22:00,
2013-10-26 00:32:00,46.0,25.0,-100.00,ENE,65,0.0,0.0,43,-99.99,,,-99.99,0.000000,,2013-10-26 06:32:00,
2013-10-26 00:42:00,46.0,25.0,-100.00,ENE,65,0.0,0.0,43,-99.99,,,-99.99,0.000000,,2013-10-26 06:42:00,
2013-10-26 00:52:00,46.0,25.0,-100.00,ENE,65,0.0,0.0,43,-99.99,,,-99.99,0.000000,,2013-10-26 06:52:00,
2013-10-26 01:21:00,46.0,26.0,-100.00,NNE,14,0.0,0.0,46,-99.99,,,0.00,0.000000,,2013-10-26 07:21:00,
2013-10-26 01:32:00,46.0,26.0,-100.00,NNE,14,0.0,0.0,46,-99.99,,,0.00,0.000000,,2013-10-26 07:32:00,
2013-10-26 01:42:00,46.0,26.0,-100.00,NNE,14,0.0,0.0,46,-99.99,,,0.00,0.000000,,2013-10-26 07:42:00,
2013-10-26 01:52:00,46.0,26.0,-100.00,NNE,14,0.0,0.0,46,-99.99,,,0.00,0.000000,,2013-10-26 07:52:00,
2013-10-26 02:22:00,46.0,27.0,-100.00,ENE,74,0.0,0.0,47,-99.99,,,0.00,0.000000,,2013-10-26 08:22:00,
2013-10-26 02:32:00,46.0,27.0,-100.00,ENE,74,0.0,0.0,47,-99.99,,,0.00,0.000000,,2013-10-26 08:32:00,
2013-10-26 02:42:00,46.0,27.0,-100.00,ENE,74,0.0,0.0,47,-99.99,,,0.00,0.000000,,2013-10-26 08:42:00,
2013-10-26 03:22:00,44.0,26.0,-100.00,ESE,111,0.0,0.0,48,-99.99,,,0.00,0.000000,,2013-10-26 09:22:00,
2013-10-26 03:33:00,44.0,26.0,-100.00,ESE,111,0.0,0.0,48,-99.99,,,0.00,0.000000,,2013-10-26 09:33:00,
2013-10-26 03:43:00,44.0,26.0,-100.00,ESE,111,0.0,0.0,48,-99.99,,,0.00,0.000000,,2013-10-26 09:43:00,
2013-10-26 03:53:00,44.0,26.0,-100.00,ESE,111,0.0,0.0,48,-99.99,,,0.00,0.000000,,2013-10-26 09:53:00,
2013-10-26 04:42:00,45.0,27.0,-100.00,ESE,106,0.0,0.0,50,-99.99,,,0.00,0.000000,,2013-10-26 10:42:00,
2013-10-26 05:21:00,43.0,27.0,-100.00,SE,132,0.0,0.0,53,-99.99,,,-99.99,0.000000,,2013-10-26 11:21:00,
2013-10-26 05:33:00,43.0,27.0,-100.00,SE,132,0.0,0.0,53,-99.99,,,-99.99,0.000000,,2013-10-26 11:33:00,
2013-10-26 05:42:00,43.0,27.0,-100.00,SE,132,0.0,0.0,53,-99.99,,,-99.99,0.000000,,2013-10-26 11:42:00,
2013-10-26 05:52:00,43.0,27.0,-100.00,SE,132,0.0,0.0,53,-99.99,,,-99.99,0.000000,,2013-10-26 11:52:00,
2013-10-26 06:21:00,40.0,26.0,-100.00,NNE,27,0.0,0.0,56,-99.99,,,0.00,0.000000,,2013-10-26 12:21:00,
2013-10-26 06:32:00,40.0,26.0,-100.00,NNE,27,0.0,0.0,56,-99.99,,,0.00,0.000000,,2013-10-26 12:32:00,
2013-10-26 06:42:00,40.0,26.0,-100.00,NNE,27,0.0,0.0,56,-99.99,,,0.00,0.000000,,2013-10-26 12:42:00,
2013-10-26 06:52:00,40.0,26.0,-100.00,NNE,27,0.0,0.0,56,-99.99,,,0.00,0.000000,,2013-10-26 12:52:00,
2013-10-26 07:21:00,41.0,26.0,-100.00,NNW,330,0.0,3.0,55,-99.99,,,0.00,0.000000,,2013-10-26 13:21:00,
2013-10-26 07:32:00,41.0,26.0,-100.00,NNW,330,0.0,3.0,55,-99.99,,,0.00,0.000000,,2013-10-26 13:32:00,
2013-10-26 07:42:00,41.0,26.0,-100.00,NNW,330,0.0,3.0,55,-99.99,,,0.00,0.000000,,2013-10-26 13:42:00,
2013-10-26 08:21:00,39.0,25.0,-100.00,SE,125,0.0,0.0,58,-99.99,,,0.00,0.000000,,2013-10-26 14:21:00,
2013-10-26 08:31:00,39.0,25.0,-100.00,SE,125,0.0,0.0,58,-99.99,,,0.00,0.000000,,2013-10-26 14:31:00,
2013-10-26 08:42:00,39.0,25.0,-100.00,SE,125,0.0,0.0,58,-99.99,,,0.00,0.000000,,2013-10-26 14:42:00,
2013-10-26 08:52:00,39.0,25.0,-100.00,SE,125,0.0,0.0,58,-99.99,,,0.00,0.000000,,2013-10-26 14:52:00,
2013-10-26 09:23:00,41.0,24.0,-100.00,ENE,76,0.0,0.0,50,0.00,,,0.00,8.000000,,2013-10-26 15:23:00,
2013-10-26 09:34:00,41.0,24.0,-100.00,ENE,76,0.0,0.0,50,0.00,,,0.00,8.000000,,2013-10-26 15:34:00,
2013-10-26 10:44:00,44.0,28.0,-100.00,South,189,0.0,4.0,52,-99.99,,,0.00,137.000000,,2013-10-26 16:44:00,
2013-10-26 10:53:00,44.0,28.0,-100.00,South,189,0.0,4.0,52,-99.99,,,0.00,137.000000,,2013-10-26 16:53:00,
2013-10-26 11:23:00,48.0,27.0,-100.00,SW,234,0.0,0.0,43,-99.99,,,0.00,427.000000,,2013-10-26 17:23:00,
2013-10-26 11:34:00,48.0,27.0,-100.00,SW,234,0.0,0.0,43,-99.99,,,0.00,427.000000,,2013-10-26 17:34:00,
2013-10-26 11:43:00,48.0,27.0,-100.00,SW,234,0.0,0.0,43,-99.99,,,0.00,427.000000,,2013-10-26 17:43:00,
2013-10-26 11:52:00,48.0,27.0,-100.00,SW,234,0.0,0.0,43,-99.99,,,0.00,427.000000,,2013-10-26 17:52:00,
2013-10-26 12:21:00,48.0,29.0,-100.00,West,264,0.0,4.0,48,0.00,,,0.00,332.000000,,2013-10-26 18:21:00,
2013-10-26 12:32:00,48.0,29.0,-100.00,West,264,0.0,4.0,48,0.00,,,0.00,332.000000,,2013-10-26 18:32:00,
2013-10-26 12:42:00,48.0,29.0,-100.00,West,264,0.0,4.0,48,0.00,,,0.00,332.000000,,2013-10-26 18:42:00,
2013-10-26 12:52:00,48.0,29.0,-100.00,West,264,0.0,4.0,48,0.00,,,0.00,332.000000,,2013-10-26 18:52:00,
2013-10-26 13:22:00,55.0,31.0,-100.00,West,277,0.0,4.0,39,0.00,,,0.00,616.000000,,2013-10-26 19:22:00,
2013-10-26 13:32:00,55.0,31.0,-100.00,West,277,0.0,4.0,39,0.00,,,0.00,616.000000,,2013-10-26 19:32:00,
2013-10-26 13:42:00,55.0,31.0,-100.00,West,277,0.0,4.0,39,0.00,,,0.00,616.000000,,2013-10-26 19:42:00,
2013-10-26 13:52:00,55.0,31.0,-100.00,West,277,0.0,4.0,39,0.00,,,0.00,616.000000,,2013-10-26 19:52:00,
2013-10-26 14:22:00,57.0,30.0,-100.00,West,281,0.0,5.0,35,0.00,,,0.00,785.000000,,2013-10-26 20:22:00,
2013-10-26 14:33:00,57.0,30.0,-100.00,West,281,0.0,5.0,35,0.00,,,0.00,785.000000,,2013-10-26 20:33:00,
2013-10-26 14:43:00,57.0,30.0,-100.00,West,281,0.0,5.0,35,0.00,,,0.00,785.000000,,2013-10-26 20:43:00,
2013-10-26 14:52:00,57.0,30.0,-100.00,West,281,0.0,5.0,35,0.00,,,0.00,785.000000,,2013-10-26 20:52:00,
2013-10-26 15:21:00,60.0,32.0,-100.00,West,266,1.0,5.0,34,0.00,,,0.00,747.000000,,2013-10-26 21:21:00,
2013-10-26 15:34:00,60.0,32.0,-100.00,West,266,1.0,5.0,34,0.00,,,0.00,747.000000,,2013-10-26 21:34:00,
2013-10-26 15:43:00,60.0,32.0,-100.00,West,266,1.0,5.0,34,0.00,,,0.00,747.000000,,2013-10-26 21:43:00,
2013-10-26 15:54:00,60.0,32.0,-100.00,West,266,1.0,5.0,34,0.00,,,0.00,747.000000,,2013-10-26 21:54:00,
2013-10-26 16:24:00,60.0,30.0,-100.00,West,259,1.0,5.0,32,0.00,,,0.00,637.000000,,2013-10-26 22:24:00,
2013-10-26 16:33:00,60.0,30.0,-100.00,West,259,1.0,5.0,32,0.00,,,0.00,637.000000,,2013-10-26 22:33:00,
2013-10-26 16:43:00,60.0,30.0,-100.00,West,259,1.0,5.0,32,0.00,,,0.00,637.000000,,2013-10-26 22:43:00,
2013-10-26 16:53:00,60.0,30.0,-100.00,West,259,1.0,5.0,32,0.00,,,0.00,637.000000,,2013-10-26 22:53:00,
2013-10-26 17:22:00,54.0,29.0,-100.00,SSW,212,1.0,5.0,38,0.00,,,0.00,345.000000,,2013-10-26 23:22:00,
2013-10-26 17:34:00,54.0,29.0,-100.00,SSW,212,1.0,5.0,38,0.00,,,0.00,345.000000,,2013-10-26 23:34:00,
2013-10-26 17:42:00,54.0,29.0,-100.00,SSW,212,1.0,5.0,38,0.00,,,0.00,345.000000,,2013-10-26 23:42:00,
2013-10-26 17:52:00,54.0,29.0,-100.00,SSW,212,1.0,5.0,38,0.00,,,0.00,345.000000,,2013-10-26 23:52:00,
2013-10-26 18:21:00,52.0,28.0,-100.00,WSW,243,0.0,4.0,40,0.00,,,0.00,47.000000,,2013-10-27 00:21:00,
2013-10-26 18:32:00,52.0,28.0,-100.00,WSW,243,0.0,4.0,40,0.00,,,0.00,47.000000,,2013-10-27 00:32:00,
2013-10-26 18:42:00,52.0,28.0,-100.00,WSW,243,0.0,4.0,40,0.00,,,0.00,47.000000,,2013-10-27 00:42:00,
2013-10-26 18:52:00,52.0,28.0,-100.00,WSW,243,0.0,4.0,40,0.00,,,0.00,47.000000,,2013-10-27 00:52:00,
2013-10-26 19:22:00,50.0,27.0,-100.00,ESE,115,0.0,4.0,40,0.00,,,0.00,9.000000,,2013-10-27 01:22:00,
2013-10-26 19:32:00,50.0,27.0,-100.00,ESE,115,0.0,4.0,40,0.00,,,0.00,9.000000,,2013-10-27 01:32:00,
2013-10-26 19:42:00,50.0,27.0,-100.00,ESE,115,0.0,4.0,40,0.00,,,0.00,9.000000,,2013-10-27 01:42:00,
2013-10-26 19:52:00,50.0,27.0,-100.00,ESE,115,0.0,4.0,40,0.00,,,0.00,9.000000,,2013-10-27 01:52:00,
2013-10-26 20:21:00,51.0,21.0,-100.00,North,359,0.0,2.0,31,0.00,,,0.00,0.000000,,2013-10-27 02:21:00,
2013-10-26 20:32:00,51.0,21.0,-100.00,North,359,0.0,2.0,31,0.00,,,0.00,0.000000,,2013-10-27 02:32:00,
2013-10-26 20:42:00,51.0,21.0,-100.00,North,359,0.0,2.0,31,0.00,,,0.00,0.000000,,2013-10-27 02:42:00,
2013-10-26 20:52:00,51.0,21.0,-100.00,North,359,0.0,2.0,31,0.00,,,0.00,0.000000,,2013-10-27 02:52:00,
2013-10-26 21:22:00,48.0,18.0,-100.00,NNE,26,0.0,3.0,30,-99.99,,,0.00,0.000000,,2013-10-27 03:22:00,
2013-10-26 21:34:00,48.0,18.0,-100.00,NNE,26,0.0,3.0,30,-99.99,,,0.00,0.000000,,2013-10-27 03:34:00,
2013-10-26 21:44:00,48.0,18.0,-100.00,NNE,26,0.0,3.0,30,-99.99,,,0.00,0.000000,,2013-10-27 03:44:00,
2013-10-26 21:54:00,48.0,18.0,-100.00,NNE,26,0.0,3.0,30,-99.99,,,0.00,0.000000,,2013-10-27 03:54:00,
2013-10-26 22:24:00,48.0,19.0,-100.00,East,79,0.0,0.0,31,-99.99,,,0.00,0.000000,,2013-10-27 04:24:00,
2013-10-26 22:34:00,48.0,19.0,-100.00,East,79,0.0,0.0,31,-99.99,,,0.00,0.000000,,2013-10-27 04:34:00,
2013-10-26 22:53:00,48.0,19.0,-100.00,East,79,0.0,0.0,31,-99.99,,,0.00,0.000000,,2013-10-27 04:53:00,